| time (UTC) | temp F | wind direction | speed knots | gust knots | rain 1hr in | rain 24hr in | rain mn in | humidity % | barometer mb |
| 20260506050221 | 56 | 97 | 2.6 | 8.7 | 0.00 | 0.08 | 0.00 | 94 | 1007.7 |
| 20260506044722 | 56 | 104 | 2.6 | 7.0 | 0.00 | 0.08 | 0.00 | 94 | 1007.9 |
| 20260506043223 | 56 | 98 | 1.7 | 5.2 | 0.00 | 0.08 | 0.00 | 94 | 1007.9 |
| 20260506041725 | 56 | 98 | 0.9 | 3.5 | 0.00 | 0.08 | 0.00 | 94 | 1008.0 |
| 20260506040228 | 56 | 86 | 0.9 | 6.1 | 0.00 | 0.08 | 0.00 | 94 | 1008.2 |
| 20260506034725 | 56 | 94 | 0.9 | 3.5 | 0.00 | 0.08 | 0.00 | 94 | 1008.0 |
| 20260506033226 | 56 | 94 | 1.7 | 7.0 | 0.00 | 0.08 | 0.00 | 94 | 1007.9 |
| 20260506031729 | 56 | 57 | 0.9 | 7.0 | 0.00 | 0.08 | 0.00 | 94 | 1008.0 |
| 20260506030230 | 56 | 107 | 3.5 | 6.1 | 0.00 | 0.08 | 0.00 | 94 | 1008.5 |
| 20260506024732 | 56 | 103 | 0.9 | 5.2 | 0.00 | 0.08 | 0.00 | 94 | 1008.7 |
| 20260506023218 | 56 | 84 | 5.2 | 8.7 | 0.00 | 0.08 | 0.00 | 94 | 1008.7 |
| 20260506021718 | 56 | 74 | 0.9 | 5.2 | 0.00 | 0.08 | 0.00 | 94 | 1009.1 |
| 20260506020220 | 56 | 107 | 0.0 | 3.5 | 0.00 | 0.08 | 0.00 | 94 | 1009.2 |
| 20260506014720 | 56 | 71 | 0.0 | 2.6 | 0.00 | 0.08 | 0.00 | 94 | 1009.0 |
| 20260506013220 | 56 | 68 | 0.0 | 0.9 | 0.00 | 0.08 | 0.00 | 94 | 1009.1 |
| 20260506011721 | 56 | 59 | 0.0 | 1.7 | 0.00 | 0.08 | 0.00 | 94 | 1009.1 |
| 20260506010227 | 56 | 83 | 0.9 | 5.2 | 0.00 | 0.08 | 0.00 | 94 | 1009.1 |
| 20260506004723 | 56 | 96 | 0.9 | 7.0 | 0.00 | 0.08 | 0.00 | 94 | 1009.4 |
| 20260506003224 | 56 | 78 | 0.0 | 2.6 | 0.00 | 0.08 | 0.00 | 94 | 1009.6 |
| 20260506001723 | 57 | 86 | 0.0 | 3.5 | 0.00 | 0.08 | 0.00 | 94 | 1009.9 |
| 20260506000229 | 56 | 85 | 0.9 | 3.5 | 0.00 | 0.08 | 0.00 | 94 | 1009.8 |
| 20260505234729 | 57 | 93 | 0.0 | 1.7 | 0.00 | 0.08 | 0.00 | 94 | 1010.1 |
| 20260505233230 | 56 | 93 | 0.0 | 1.7 | 0.00 | 0.08 | 0.00 | 94 | 1010.1 |
| 20260505231716 | 56 | 93 | 0.0 | 0.9 | 0.00 | 0.08 | 0.00 | 94 | 1010.1 |
| 20260505230217 | 56 | 93 | 0.0 | 1.7 | 0.00 | 0.08 | 0.00 | 94 | 1010.3 |
| 20260505224718 | 56 | 103 | 0.0 | 2.6 | 0.00 | 0.08 | 0.00 | 94 | 1010.5 |
| 20260505223224 | 56 | 163 | 0.0 | 0.9 | 0.00 | 0.08 | 0.00 | 94 | 1010.5 |
| 20260505221722 | 56 | 175 | 0.0 | 1.7 | 0.00 | 0.08 | 0.00 | 94 | 1010.6 |
| 20260505220223 | 56 | 52 | 0.0 | 0.9 | 0.00 | 0.08 | 0.02 | 94 | 1010.6 |
| 20260505214730 | 56 | 52 | 0.0 | 0.0 | 0.00 | 0.08 | 0.02 | 94 | 1010.7 |
| 20260505213231 | 56 | 52 | 0.0 | 3.5 | 0.00 | 0.08 | 0.02 | 94 | 1010.9 |
| 20260505211732 | 56 | 36 | 2.6 | 4.3 | 0.00 | 0.08 | 0.02 | 94 | 1011.0 |
| 20260505210216 | 56 | 23 | 0.0 | 1.7 | 0.00 | 0.08 | 0.02 | 94 | 1011.1 |
| 20260505204718 | 56 | 88 | 0.0 | 0.9 | 0.00 | 0.08 | 0.02 | 94 | 1011.3 |
| 20260505203220 | 56 | 87 | 0.0 | 1.7 | 0.00 | 0.08 | 0.02 | 93 | 1011.2 |
| 20260505201726 | 56 | 88 | 0.0 | 1.7 | 0.00 | 0.08 | 0.02 | 93 | 1011.3 |
| 20260505200229 | 56 | 87 | 0.0 | 0.9 | 0.00 | 0.08 | 0.02 | 93 | 1011.3 |
| 20260505194731 | 57 | 87 | 0.0 | 1.7 | 0.00 | 0.08 | 0.02 | 93 | 1011.2 |
| 20260505193229 | 57 | 87 | 0.0 | 1.7 | 0.00 | 0.08 | 0.02 | 93 | 1011.1 |
| 20260505191732 | 56 | 87 | 0.9 | 2.6 | 0.00 | 0.08 | 0.02 | 93 | 1011.0 |
| 20260505190233 | 56 | 82 | 0.9 | 3.5 | 0.00 | 0.08 | 0.02 | 93 | 1010.8 |
| 20260505184733 | 56 | 79 | 0.9 | 3.5 | 0.00 | 0.08 | 0.02 | 93 | 1010.7 |
| 20260505183216 | 56 | 98 | 0.9 | 2.6 | 0.00 | 0.08 | 0.02 | 93 | 1010.8 |
| 20260505181735 | 57 | 88 | 2.6 | 4.3 | 0.00 | 0.08 | 0.02 | 92 | 1010.7 |
| 20260505180234 | 57 | 94 | 1.7 | 6.1 | 0.00 | 0.08 | 0.02 | 92 | 1010.7 |
| 20260505174718 | 57 | 90 | 2.6 | 5.2 | 0.00 | 0.08 | 0.02 | 93 | 1010.7 |
| 20260505173220 | 57 | 40 | 1.7 | 7.0 | 0.00 | 0.08 | 0.02 | 93 | 1010.7 |
| 20260505171720 | 57 | 82 | 2.6 | 5.2 | 0.00 | 0.08 | 0.02 | 93 | 1010.8 |
| 20260505170226 | 56 | 84 | 3.5 | 8.7 | 0.00 | 0.08 | 0.02 | 93 | 1010.8 |
| 20260505164728 | 56 | 40 | 1.7 | 4.3 | 0.00 | 0.08 | 0.02 | 93 | 1010.8 |
| 20260505163230 | 56 | 61 | 2.6 | 6.1 | 0.00 | 0.08 | 0.02 | 93 | 1011.0 |
| 20260505161733 | 56 | 82 | 2.6 | 7.0 | 0.00 | 0.08 | 0.02 | 93 | 1011.0 |
| 20260505160235 | 56 | 35 | 1.7 | 7.0 | 0.00 | 0.08 | 0.02 | 93 | 1011.0 |
| 20260505153222 | 56 | 103 | 3.5 | 10.4 | 0.00 | 0.08 | 0.02 | 93 | 1011.2 |
| 20260505151722 | 56 | 93 | 2.6 | 10.4 | 0.00 | 0.08 | 0.02 | 93 | 1011.2 |
| 20260505150224 | 56 | 104 | 4.3 | 9.6 | 0.00 | 0.08 | 0.02 | 93 | 1011.3 |
| 20260505140231 | 57 | 97 | 2.6 | 6.1 | 0.00 | 0.08 | 0.02 | 93 | 1011.3 |
| 20260505130221 | 57 | 86 | 1.7 | 3.5 | 0.00 | 0.08 | 0.02 | 92 | 1011.6 |
| 20260505124723 | 57 | 87 | 3.5 | 7.8 | 0.04 | 0.08 | 0.02 | 92 | 1011.6 |
| 20260505123226 | 57 | 48 | 2.6 | 7.0 | 0.04 | 0.08 | 0.02 | 93 | 1011.7 |
| 20260505121731 | 57 | 63 | 2.6 | 5.2 | 0.04 | 0.08 | 0.02 | 93 | 1011.6 |
| 20260505120233 | 56 | 45 | 1.7 | 7.0 | 0.04 | 0.08 | 0.02 | 93 | 1011.7 |
| 20260505114735 | 56 | 89 | 2.6 | 6.1 | 0.00 | 0.04 | 0.01 | 93 | 1011.8 |
| 20260505113219 | 56 | 97 | 0.9 | 1.7 | 0.00 | 0.04 | 0.01 | 93 | 1011.9 |
| 20260505111720 | 56 | 97 | 0.0 | 1.7 | 0.00 | 0.04 | 0.01 | 93 | 1011.9 |
| 20260505110221 | 56 | 97 | 0.9 | 3.5 | 0.00 | 0.04 | 0.01 | 92 | 1011.9 |
| 20260505101731 | 56 | 153 | 0.0 | 0.9 | 0.00 | 0.04 | 0.01 | 90 | 1011.8 |
| 20260505100232 | 57 | 153 | 0.0 | 0.9 | 0.00 | 0.04 | 0.01 | 91 | 1011.9 |
| 20260505094736 | 57 | 153 | 1.7 | 2.6 | 0.00 | 0.04 | 0.01 | 90 | 1011.8 |
| 20260505093235 | 56 | 80 | 0.0 | 1.7 | 0.00 | 0.04 | 0.01 | 90 | 1011.6 |
| 20260505091717 | 56 | 80 | 0.9 | 6.1 | 0.00 | 0.04 | 0.01 | 91 | 1011.8 |
| 20260505090224 | 56 | 18 | 0.0 | 2.6 | 0.00 | 0.04 | 0.01 | 91 | 1011.6 |
| 20260505084725 | 56 | 52 | 0.0 | 3.5 | 0.00 | 0.04 | 0.01 | 90 | 1011.5 |
| 20260505083228 | 56 | 71 | 0.9 | 2.6 | 0.04 | 0.04 | 0.01 | 90 | 1011.4 |
| 20260505081735 | 55 | 71 | 0.0 | 3.5 | 0.04 | 0.04 | 0.01 | 91 | 1011.5 |
| 20260505080236 | 55 | 26 | 2.6 | 3.5 | 0.04 | 0.04 | 0.01 | 91 | 1011.4 |
| 20260505074718 | 55 | 36 | 2.6 | 5.2 | 0.04 | 0.04 | 0.01 | 91 | 1011.3 |
| 20260505073224 | 55 | 37 | 1.7 | 3.5 | 0.00 | 0.00 | 0.00 | 91 | 1011.2 |
| 20260505071725 | 55 | 217 | 0.0 | 1.7 | 0.00 | 0.00 | 0.00 | 91 | 1011.4 |
| 20260505070226 | 55 | 217 | 0.0 | 0.0 | 0.00 | 0.00 | 0.00 | 91 | 1011.6 |
| 20260505064730 | 55 | 217 | 0.0 | 2.6 | 0.00 | 0.00 | 0.00 | 90 | 1011.5 |
| 20260505063232 | 56 | 217 | 0.0 | 1.7 | 0.00 | 0.00 | 0.00 | 88 | 1011.3 |
| 20260505061733 | 56 | 216 | 1.7 | 7.0 | 0.00 | 0.00 | 0.00 | 87 | 1011.3 |
| 20260505060219 | 56 | 212 | 1.7 | 2.6 | 0.00 | 0.00 | 0.00 | 88 | 1011.2 |